Jamestown, ND

3:16 PM CDT on April 30, 2017 (GMT -0500)
Jamestown Municipal

Weather History for KJMS - May, 2013

Change the Weather History Date:

Sunday, May 26, 2013

  Actual Average Record
Temperature  
Mean Temperature 57 °F 59 °F  
Max Temperature 64 °F 71 °F 101 °F (1934)
Min Temperature 50 °F 46 °F 29 °F (1961)
Degree Days  
Heating Degree Days 8 7  
Month to date heating degree days 304 290  
Since 1 July heating degree days 9610 8884  
Cooling Degree Days 0 1  
Month to date cooling degree days 9 15  
Year to date cooling degree days 9 17  
Growing Degree Days 6 (Base 50)    
Moisture  
Dew Point 50 °F    
Average Humidity 84    
Maximum Humidity 100    
Minimum Humidity 67    
Precipitation  
Precipitation T in 0.09 in 1.48 in (1932)
Month to date precipitation 3.94 2.18  
Year to date precipitation 5.13 5.07  
Sea Level Pressure  
Sea Level Pressure 30.03 in    
Wind  
Wind Speed 16 mph (SE)    
Max Wind Speed 24 mph    
Max Gust Speed 31 mph    
Visibility 7 miles    
Events Rain    
T = Trace of Precipitation, MM = Missing Value Source: NWS Daily Summary

Daily Weather History Graph

Daily Weather History Graph

Search for Another Location

Airport or City:

Trip Planner

Search our weather history database for the weather conditions in past years. The results will help you decide how hot, cold, wet, or windy it might be!

Date:

Astronomy

May. 26, 2013 Rise Set
Actual Time 5:47 AM CDT 9:16 PM CDT
Civil Twilight 5:10 AM CDT 9:54 PM CDT
Nautical Twilight 4:20 AM CDT 10:44 PM CDT
Astronomical Twilight 3:15 AM CDT 11:50 PM CDT
Moon 11:02 PM CDT (5/26) 7:19 AM CDT (5/26)
Length of Visible Light 16h 43m
Length of Day
15h 28m
Waning Gibbous, 96% of the Moon is Illuminated
May 26
Waning Gibbous
May 31
Last Quarter
Jun 8
New
Jun 16
First Quarter
Jun 23
Full

Hourly Weather History & Observations

Time (CDT) Temp. Dew Point Humidity Pressure Visibility Wind Dir Wind Speed Gust Speed Precip Events Conditions
12:56 AM 53.1 °F 51.1 °F 93% 30.09 in 6.0 mi SSE 15.0 mph - N/A   Overcast
1:56 AM 52.0 °F 51.1 °F 97% 30.05 in 6.0 mi SE 12.7 mph - N/A   Overcast
2:56 AM 52.0 °F 50.0 °F 93% 30.05 in 8.0 mi SE 16.1 mph 25.3 mph N/A   Overcast
3:56 AM 51.1 °F 50.0 °F 96% 30.03 in 5.0 mi SE 16.1 mph - N/A   Overcast
4:25 AM 51.8 °F 50.0 °F 94% 30.01 in 2.5 mi ESE 20.7 mph 27.6 mph N/A   Overcast
4:56 AM 51.1 °F 50.0 °F 96% 30.03 in 3.0 mi SE 20.7 mph 29.9 mph N/A   Overcast
5:21 AM 51.8 °F 50.0 °F 94% 30.03 in 6.0 mi SE 17.3 mph 28.8 mph N/A   Overcast
5:56 AM 51.1 °F 50.0 °F 96% 30.05 in 5.0 mi SE 15.0 mph 23.0 mph N/A   Overcast
6:56 AM 50.0 °F 48.9 °F 96% 30.06 in 5.0 mi SE 15.0 mph - N/A   Overcast
7:56 AM 50.0 °F 48.9 °F 96% 30.04 in 4.0 mi SE 17.3 mph 24.2 mph N/A   Overcast
8:56 AM 50.0 °F 48.9 °F 96% 30.07 in 4.0 mi SE 18.4 mph 24.2 mph N/A   Overcast
9:44 AM 50.0 °F 48.2 °F 94% 30.04 in 1.8 mi ESE 13.8 mph 23.0 mph 0.00 in Rain Light Rain
9:56 AM 50.0 °F 48.9 °F 96% 30.04 in 1.5 mi SE 16.1 mph - 0.00 in   Overcast
10:26 AM 50.0 °F 50.0 °F 100% 29.98 in 2.0 mi ESE 20.7 mph - N/A   Overcast
10:42 AM 51.8 °F 50.0 °F 94% 29.98 in 4.0 mi ESE 18.4 mph 25.3 mph N/A   Overcast
10:56 AM 51.1 °F 48.9 °F 92% 30.00 in 4.0 mi ESE 13.8 mph 24.2 mph N/A   Overcast
11:56 AM 52.0 °F 48.9 °F 89% 30.05 in 7.0 mi ESE 16.1 mph - N/A   Overcast
12:56 PM 55.0 °F 50.0 °F 83% 30.06 in 8.0 mi SE 15.0 mph - N/A   Overcast
1:51 PM 59.0 °F 51.8 °F 77% 30.04 in 10.0 mi SE 10.4 mph - N/A   Overcast
1:56 PM 59.0 °F 51.1 °F 75% 30.05 in 10.0 mi SE 12.7 mph - N/A   Overcast
2:56 PM 59.0 °F 51.1 °F 75% 30.04 in 10.0 mi SE 10.4 mph 19.6 mph N/A   Overcast
3:56 PM 62.1 °F 52.0 °F 70% 30.03 in 10.0 mi SE 17.3 mph - N/A   Overcast
4:56 PM 63.0 °F 52.0 °F 67% 30.03 in 10.0 mi SSE 16.1 mph 23.0 mph N/A   Partly Cloudy
5:56 PM 63.0 °F 53.1 °F 70% 30.01 in 10.0 mi SE 18.4 mph 25.3 mph N/A   Clear
6:56 PM 62.1 °F 52.0 °F 70% 30.01 in 10.0 mi SE 18.4 mph 24.2 mph N/A   Clear
7:53 PM 57.2 °F 51.8 °F 82% 30.00 in 10.0 mi SE 16.1 mph 23.0 mph N/A   Mostly Cloudy
7:56 PM 57.0 °F 51.1 °F 81% 30.02 in 10.0 mi SE 17.3 mph - N/A   Mostly Cloudy
8:22 PM 55.4 °F 51.8 °F 88% 30.00 in 8.0 mi ESE 17.3 mph 21.9 mph N/A   Overcast
8:56 PM 55.0 °F 51.1 °F 86% 30.02 in 6.0 mi SE 16.1 mph 21.9 mph N/A   Overcast
9:21 PM 53.6 °F 51.8 °F 94% 30.00 in 7.0 mi SE 15.0 mph - N/A   Overcast
9:56 PM 54.0 °F 50.0 °F 86% 30.02 in 9.0 mi SE 18.4 mph - N/A   Overcast
10:56 PM 53.1 °F 50.0 °F 89% 30.01 in 10.0 mi SE 12.7 mph - N/A   Overcast
11:56 PM 53.1 °F 50.0 °F 89% 29.98 in 10.0 mi SE 11.5 mph 19.6 mph N/A   Overcast